マクノート彗星

C/2008 A1 ( McNaught )

English version
Home page
Updated on March 27, 2010

---------------------------------------------------------------------

・ プロフィール

発見日 2008年1月10日
発見光度 15.2等
発見者 R. H. McNaught (Siding Spring Observatory)

・ 写真集

・ 軌道要素

The following orbital elements are taken from MPC 65935:

Epoch 2008 Sept. 11.0 TT = JDT 2454720.5
T 2008 Sept. 29.1270 TT                                 MPC
q   1.073068             (2000.0)            P               Q
z  -0.000202       Peri.  348.4766      +0.1087363      +0.1532613
                   Node   277.8836      -0.8149596      -0.5520300
e   1.000217       Incl.   82.5492      -0.5692251      +0.8196181
From 827 observations 2008 Jan. 10-2009 May 1, mean residual 0".6.
     Nongravitational parameters A1 = +5.06, A2 = +0.6769.

・ 星図

・ 光度変化

        m1 = 5.5 + 5 logΔ + 10.0 log r  [   ,110]  (              〜2009年 1月17日)
        m1 = 4.0 + 5 logΔ + 15.0 log r  [110,   ]  (2009年 1月17日〜              )

---------------------------------------------------------------------

軌道要素はMPCのEphemerides and Orbital Elementsに掲載されたものです。
星図はステラナビゲータ Ver.8 (アストロアーツ) で作成したものです。
光度グラフはComet for Windowsで作成したものです。

---------------------------------------------------------------------

Copyright(C) Seiichi Yoshida (comet@aerith.net). All rights reserved.